Terminal Aerodrome Forecast
Issued by NWS Brownsville, TX

Home | Current Version | Previous Version | Text Only | Print | Product List | Glossary On
Versions: 1 2 3 4 5 6 7 8 9 10 11 12 13 14 15 16 17 18
010
FTUS44 KBRO 281120
TAFHRL
TAF
KHRL 281120Z 2812/2912 14012KT P6SM FEW015
     FM281300 15015G22KT P6SM SCT030
     FM281700 16025G32KT P6SM SCT050
     FM290100 16017G25KT P6SM SCT025=

USA.gov is the U.S. government's official web portal to all federal, state and local government web resources and services.